| time (UTC) | temp C | wind direction | speed KPH | gust KPH | rain 1hr cm | rain 24hr cm | rain mn cm | humidity % | barometer mb |
| 20260904221558 | 15 | 181 | 3.2 | 11.3 | 0.03 | 0.36 | 0.18 | 79 | 1014.5 |
| 20260904220050 | 16 | 97 | 4.8 | 9.7 | 0.00 | 0.33 | 0.15 | 75 | 1014.3 |
| 20260904214604 | 17 | 256 | 4.8 | 20.9 | 0.00 | 0.33 | 0.15 | 70 | 1014.1 |
| 20260904213049 | 18 | 149 | 3.2 | 6.4 | 0.00 | 0.33 | 0.15 | 59 | 1013.5 |
| 20260904211605 | 18 | 0 | 0.0 | 6.4 | 0.00 | 0.33 | 0.15 | 58 | 1013.2 |
| 20260904210057 | 19 | 115 | 1.6 | 9.7 | 0.00 | 0.33 | 0.15 | 53 | 1013.0 |
| 20260904204549 | 19 | 86 | 4.8 | 9.7 | 0.00 | 0.33 | 0.15 | 55 | 1012.9 |
| 20260904203101 | 20 | 220 | 3.2 | 8.0 | 0.00 | 0.33 | 0.15 | 55 | 1012.7 |
| 20260904201559 | 20 | 280 | 3.2 | 12.9 | 0.00 | 0.33 | 0.15 | 53 | 1012.8 |
| 20260904194557 | 18 | 95 | 0.0 | 4.8 | 0.00 | 0.33 | 0.15 | 64 | 1013.1 |
| 20260904193053 | 18 | 0 | 0.0 | 0.0 | 0.00 | 0.33 | 0.15 | 69 | 1013.2 |
| 20260904191553 | 17 | 0 | 0.0 | 1.6 | 0.00 | 0.33 | 0.15 | 69 | 1013.3 |
| 20260904190056 | 17 | 53 | 1.6 | 4.8 | 0.00 | 0.33 | 0.15 | 67 | 1013.4 |
| 20260904184552 | 17 | 0 | 0.0 | 3.2 | 0.00 | 0.33 | 0.15 | 64 | 1013.3 |
| 20260904183058 | 18 | 34 | 0.0 | 4.8 | 0.00 | 0.33 | 0.15 | 70 | 1013.3 |
| 20260904181555 | 17 | 0 | 1.6 | 9.7 | 0.00 | 0.33 | 0.15 | 63 | 1013.2 |
| 20260904180052 | 17 | 330 | 3.2 | 8.0 | 0.00 | 0.33 | 0.15 | 69 | 1013.2 |
| 20260904174605 | 16 | 69 | 3.2 | 11.3 | 0.00 | 0.33 | 0.15 | 80 | 1013.2 |
| 20260904173101 | 16 | 0 | 0.0 | 0.0 | 0.00 | 0.33 | 0.15 | 82 | 1013.1 |
| 20260904171600 | 15 | 0 | 0.0 | 0.0 | 0.00 | 0.33 | 0.15 | 89 | 1013.0 |
| 20260904170054 | 13 | 0 | 0.0 | 0.0 | 0.00 | 0.33 | 0.15 | 90 | 1013.1 |
| 20260904164552 | 13 | 0 | 0.0 | 0.0 | 0.00 | 0.33 | 0.15 | 90 | 1013.1 |
| 20260904163059 | 12 | 0 | 0.0 | 0.0 | 0.00 | 0.33 | 0.15 | 89 | 1013.1 |
| 20260904161553 | 12 | 0 | 0.0 | 0.0 | 0.00 | 0.33 | 0.15 | 90 | 1012.9 |
| 20260904160059 | 12 | 0 | 0.0 | 0.0 | 0.00 | 0.33 | 0.15 | 92 | 1013.1 |
| 20260904154600 | 12 | 0 | 0.0 | 4.8 | 0.00 | 0.38 | 0.15 | 92 | 1013.1 |
| 20260904153138 | 11 | 142 | 0.0 | 8.0 | 0.00 | 0.38 | 0.15 | 92 | 1012.9 |
| 20260904151601 | 11 | 175 | 3.2 | 8.0 | 0.00 | 0.38 | 0.15 | 93 | 1012.8 |
| 20260904150053 | 11 | 0 | 0.0 | 1.6 | 0.00 | 0.38 | 0.15 | 93 | 1012.5 |
| 20260904144555 | 11 | 0 | 0.0 | 3.2 | 0.00 | 0.43 | 0.15 | 93 | 1012.5 |
| 20260904143051 | 11 | 0 | 0.0 | 3.2 | 0.00 | 0.43 | 0.15 | 93 | 1012.5 |
| 20260904141601 | 11 | 194 | 1.6 | 6.4 | 0.00 | 0.43 | 0.15 | 93 | 1012.3 |
| 20260904140057 | 11 | 0 | 0.0 | 4.8 | 0.00 | 0.43 | 0.15 | 93 | 1012.0 |
| 20260904134555 | 11 | 0 | 0.0 | 0.0 | 0.00 | 0.43 | 0.15 | 93 | 1012.0 |
| 20260904133058 | 11 | 0 | 0.0 | 0.0 | 0.03 | 0.43 | 0.15 | 93 | 1011.8 |
| 20260904131616 | 11 | 0 | 0.0 | 0.0 | 0.05 | 0.43 | 0.15 | 93 | 1011.8 |
| 20260904130052 | 11 | 0 | 1.6 | 4.8 | 0.05 | 0.43 | 0.15 | 93 | 1011.5 |
| 20260904124553 | 11 | 0 | 0.0 | 0.0 | 0.08 | 0.43 | 0.15 | 92 | 1011.3 |
| 20260904123055 | 11 | 0 | 0.0 | 0.0 | 0.08 | 0.41 | 0.13 | 92 | 1011.4 |
| 20260904121549 | 11 | 0 | 0.0 | 0.0 | 0.08 | 0.38 | 0.10 | 92 | 1011.3 |
| 20260904120052 | 11 | 0 | 0.0 | 0.0 | 0.08 | 0.38 | 0.10 | 92 | 1011.5 |
| 20260904114555 | 11 | 181 | 0.0 | 3.2 | 0.05 | 0.36 | 0.08 | 92 | 1011.3 |
| 20260904113059 | 11 | 172 | 1.6 | 4.8 | 0.03 | 0.33 | 0.05 | 92 | 1011.2 |
| 20260904111553 | 11 | 135 | 0.0 | 3.2 | 0.00 | 0.30 | 0.03 | 92 | 1011.1 |
| 20260904110053 | 11 | 165 | 1.6 | 6.4 | 0.00 | 0.30 | 0.03 | 92 | 1011.1 |
| 20260904104602 | 11 | 0 | 0.0 | 3.2 | 0.00 | 0.30 | 0.03 | 93 | 1011.0 |
| 20260904103103 | 11 | 0 | 1.6 | 4.8 | 0.00 | 0.30 | 0.03 | 93 | 1010.9 |
| 20260904101558 | 11 | 0 | 0.0 | 0.0 | 0.00 | 0.30 | 0.03 | 93 | 1010.8 |
| 20260904100052 | 11 | 0 | 0.0 | 0.0 | 0.00 | 0.30 | 0.03 | 91 | 1010.7 |
| 20260904094553 | 11 | 0 | 0.0 | 0.0 | 0.00 | 0.33 | 0.03 | 91 | 1010.7 |
| 20260904093103 | 11 | 0 | 0.0 | 0.0 | 0.00 | 0.33 | 0.03 | 91 | 1010.6 |
| 20260904091604 | 11 | 0 | 0.0 | 0.0 | 0.00 | 0.33 | 0.03 | 91 | 1010.5 |
| 20260904090049 | 11 | 0 | 0.0 | 0.0 | 0.00 | 0.33 | 0.03 | 91 | 1010.5 |
| 20260904084553 | 11 | 0 | 0.0 | 0.0 | 0.00 | 0.36 | 0.03 | 91 | 1010.5 |
| 20260904083106 | 12 | 0 | 0.0 | 0.0 | 0.00 | 0.36 | 0.03 | 91 | 1010.5 |
| 20260904081553 | 12 | 0 | 0.0 | 0.0 | 0.00 | 0.36 | 0.03 | 91 | 1010.5 |
| 20260904080052 | 12 | 0 | 0.0 | 1.6 | 0.03 | 0.36 | 0.03 | 90 | 1010.4 |
| 20260904074603 | 12 | 0 | 0.0 | 4.8 | 0.03 | 0.38 | 0.03 | 91 | 1010.4 |
| 20260904073051 | 12 | 169 | 0.0 | 3.2 | 0.03 | 0.38 | 0.03 | 91 | 1010.4 |
| 20260904071553 | 12 | 0 | 0.0 | 6.4 | 0.03 | 0.38 | 0.03 | 91 | 1010.5 |
| 20260904070112 | 12 | 0 | 0.0 | 0.0 | 0.00 | 0.36 | 0.00 | 92 | 1010.4 |
| 20260904064550 | 12 | 0 | 0.0 | 0.0 | 0.00 | 0.36 | 0.36 | 92 | 1010.4 |
| 20260904063103 | 12 | 0 | 0.0 | 0.0 | 0.00 | 0.36 | 0.36 | 92 | 1010.6 |
| 20260904061552 | 12 | 0 | 0.0 | 0.0 | 0.00 | 0.36 | 0.36 | 92 | 1010.6 |
| 20260904060056 | 12 | 0 | 0.0 | 0.0 | 0.00 | 0.36 | 0.36 | 93 | 1010.6 |
| 20260904054554 | 12 | 0 | 0.0 | 0.0 | 0.00 | 0.36 | 0.36 | 93 | 1010.7 |
| 20260904053054 | 12 | 0 | 0.0 | 0.0 | 0.00 | 0.36 | 0.36 | 93 | 1010.7 |
| 20260904051554 | 12 | 0 | 0.0 | 0.0 | 0.00 | 0.36 | 0.36 | 93 | 1010.7 |
| 20260904050056 | 12 | 0 | 0.0 | 4.8 | 0.00 | 0.36 | 0.36 | 92 | 1010.8 |
| 20260904044603 | 12 | 0 | 0.0 | 0.0 | 0.00 | 0.36 | 0.36 | 92 | 1010.7 |
| 20260904043057 | 13 | 0 | 0.0 | 0.0 | 0.00 | 0.36 | 0.36 | 92 | 1010.8 |
| 20260904041559 | 13 | 0 | 0.0 | 0.0 | 0.00 | 0.36 | 0.36 | 92 | 1010.6 |
| 20260904040109 | 13 | 0 | 1.6 | 4.8 | 0.00 | 0.36 | 0.36 | 92 | 1010.7 |
| 20260904034554 | 13 | 0 | 0.0 | 0.0 | 0.00 | 0.36 | 0.36 | 92 | 1010.5 |
| 20260904033051 | 13 | 0 | 0.0 | 0.0 | 0.00 | 0.36 | 0.36 | 92 | 1010.4 |
| 20260904031550 | 13 | 0 | 0.0 | 1.6 | 0.00 | 0.36 | 0.36 | 91 | 1010.2 |
| 20260904030052 | 13 | 0 | 0.0 | 1.6 | 0.00 | 0.36 | 0.36 | 91 | 1009.9 |
| 20260904024555 | 13 | 0 | 0.0 | 0.0 | 0.00 | 0.36 | 0.36 | 90 | 1010.0 |
| 20260904023053 | 13 | 0 | 0.0 | 1.6 | 0.00 | 0.36 | 0.36 | 90 | 1010.0 |
| 20260904021549 | 13 | 0 | 0.0 | 0.0 | 0.00 | 0.36 | 0.36 | 91 | 1009.9 |
| 20260904020054 | 13 | 0 | 0.0 | 4.8 | 0.00 | 0.36 | 0.36 | 90 | 1009.9 |
| 20260904014638 | 13 | 0 | 0.0 | 3.2 | 0.00 | 0.38 | 0.36 | 90 | 1010.1 |
| 20260904013054 | 13 | 102 | 0.0 | 4.8 | 0.00 | 0.38 | 0.36 | 90 | 1010.3 |
| 20260904011553 | 13 | 113 | 1.6 | 4.8 | 0.00 | 0.38 | 0.36 | 90 | 1010.2 |
| 20260904004554 | 13 | 101 | 1.6 | 4.8 | 0.03 | 0.51 | 0.36 | 91 | 1010.2 |
| 20260904003101 | 13 | 0 | 0.0 | 0.0 | 0.03 | 0.51 | 0.36 | 91 | 1010.5 |
| 20260904001551 | 13 | 0 | 0.0 | 0.0 | 0.18 | 0.51 | 0.36 | 88 | 1010.4 |
| 20260903234559 | 13 | 0 | 0.0 | 3.2 | 0.15 | 0.89 | 0.33 | 90 | 1010.3 |
| 20260903233110 | 14 | 5 | 0.0 | 17.7 | 0.15 | 0.89 | 0.33 | 85 | 1010.4 |
| 20260903231553 | 16 | 232 | 11.3 | 25.7 | 0.00 | 0.74 | 0.18 | 70 | 1010.3 |
| 20260903230055 | 16 | 72 | 0.0 | 3.2 | 0.00 | 0.74 | 0.18 | 68 | 1009.9 |
| 20260903224555 | 16 | 75 | 1.6 | 6.4 | 0.00 | 0.74 | 0.18 | 69 | 1009.9 |
| 20260903223111 | 16 | 57 | 1.6 | 4.8 | 0.00 | 0.74 | 0.18 | 70 | 1010.1 |